Showing default

TOMORROW-S6, 63225

Orbit data source: Space-Track

TOMORROW-S6, 63225 is a payload satellite owned by Tomorrow.io (US) in SSO that was launched on Sat, 15 Mar 2025 UTC via an FALCON 9 launch vehicle from the Air Force Western Test Range (AFWTR). Payload-class satellites include a variety of spacecraft equipped with specific instruments for various scientific and technological missions. These include communications satellites like Starlink; space stations such as the ISS; scientific satellites like the Hubble; Earth observation satellites from companies like Planet Labs, Umbra, and HawkEye 360; GPS; miniature CubeSats for education and research; and military/defense satellites.

Loading next visibility...
Identifier
63225, 2025-052R
Orbit
SSO
Country
Flag of USUS
Related business
Manufacturer
Blue Canyon
Mission
Operational Commercial Weather
Bus & Motor
CUBESAT 6U, Unknown motor
Mass
12 kg wet, 12 kg dry
Launch date (UTC)
2025-03-15 (7 months ago)
Launch vehicle
FALCON 9
Launch site
Air Force Western Test Range (AFWTR)
Object type
Payload
Rocket body
Debris
Shape & HBR
Box + 2 Pan, 1.0 m
Radar Cross Section
0.138 m², Medium (>0.1 m² and < 1m²)

Expand to show TLE details & history
Last TLE update: 12 hours ago

TLE from 12 hours ago
0 TOMORROW-S6
1 63225U 25052R   25288.65783510  .00006477  00000-0  30766-3 0  9991
2 63225  97.4221 180.3625 0003604 275.5325  84.5499 15.19560041 32671
Epoch: 2025-10-15T15:47Z
TLE epoch observation values (Epoch: 2025-10-15T15:47:16.952Z)
Latitude
-0.00001°
Longitude
-80.88689°
Altitude
510.024 km
Speed
7.609 km/s
True Right ascension
12h 01m 27s
True Declination
0° 00' 00"
Sunlit
Object was in daylight at epoch
Visualization orbit readout
Latitude
Unknown
Longitude
Unknown
Altitude
Unknown
Speed
Unknown
Apparent Right ascension
Unknown
Apparent Declination
Unknown
Sunlit
N/A
Visualization observer readout
Local Sidereal Time
22:45:53
Azimuth
Unknown
Elevation
Unknown
Doppler factor
Unknown
Orbital elements
Apogee altitude
506.617 km
Perigee altitude
501.656 km
Semi-major axis
6,882.273 km
Eccentricity
0.00036
Inclination
97.4221°
RAAN
180.3625°
Arg. of periapsis
275.5325°
True anomaly
84.59101°
Mean anomaly
84.5499°
Eccentric anomaly
84.57046°
Mean motion
3.80142 °/min
Orbital period
94.7 mins
BSTAR
0.00030766
Loading maneuver chart data...
Computing Atmospheric mass density...
Loading historical data...
Loading historical data...
Loading historical data...
Loading historical data...
Loading historical data...
Loading historical data...
Loading historical data...

Documentation

Showing up to 5 results
|